Flag for China Weather past 2 weeks in Zhengzhou, Henan, China

Now
32 °F

Haze.


Feels Like: 32 °F
Forecast: 24 / 37 °F
Wind: 1 mph from North

Location: Zhengzhou Airport

Current Time: Jan 29, 2015 at 6:24:39 PM

Latest Report: Jan 29, 2015 at 6:00 PM


Visibility: 2 mi

Pressure: 30.36 "Hg

Humidity: 75%

Dew point: 25 °F

Location of ZhengzhouLocation

Historic Weather in Zhengzhou — Graph

°F

Zhengzhou temperature yesterday

Maximum temperature yesterday: 30 °F (at 11:00 AM)
Minimum temperature yesterday: 25 °F (at 4:00 PM)
Average temperature yesterday: 27 °F

Past Weeks' High & Low Weather Summary

 TemperatureHumidityPressure
High57 °F (Jan 20, 2:00 PM)100% (Jan 16, 1:00 AM)30.60 "Hg (Jan 16, 1:00 AM)
Low23 °F (Jan 22, 6:00 AM)13% (Jan 18, 5:00 PM)29.98 "Hg (Jan 23, 3:00 PM)
Average37 °F60%30.31 "Hg
* Reported Jan 14 4:00 PM — Jan 29 4:00 PM, Zhengzhou, Weather by CustomWeather, © 2014

Note: Actual official high and low records may vary slightly from our data, if they occured in-between our weather recording intervals... More about our weather records

Advertising

Zhengzhou weather history for previous 24 hours

 ConditionsComfort  
Time TempWeatherWind HumidityBarometerVisibility
4:00 PM
Jan 29
34 °FHaze.3 mph70%30.33 "Hg3 mi
3:00 PM34 °FHaze.3 mph65%30.33 "Hg3 mi
2:00 PM34 °FHaze.3 mph60%30.36 "Hg3 mi
1:00 PM32 °FHaze.6 mph64%30.36 "Hg2 mi
12:00 PM30 °FHaze.6 mph69%30.42 "Hg2 mi
11:00 AM30 °FHaze.3 mph75%30.45 "Hg2 mi
10:00 AM28 °FIce fog.6 mph80%30.42 "Hg2 mi
9:00 AM27 °FIce fog.3 mph86%30.42 "Hg2 mi
8:00 AM27 °FIce fog.1 mph86%30.42 "Hg2 mi
7:00 AM25 °FIce fog.3 mph86%30.42 "Hg2 mi
6:00 AM25 °FIce fog.3 mph86%30.42 "Hg2 mi
5:00 AM25 °FIce fog.3 mph86%30.42 "Hg2 mi
4:00 AM23 °FLight snow. Ice fog.3 mph93%30.45 "Hg2 mi
3:00 AM25 °FLight snow. Ice fog.3 mph93%30.48 "Hg2 mi
2:00 AM25 °FLight snow. Ice fog.3 mph93%30.48 "Hg2 mi
1:00 AM25 °FLight snow. Ice fog.3 mph93%30.48 "Hg2 mi
12:00 AM25 °FLight snow. Ice fog.6 mph93%30.51 "Hg2 mi
11:00 PM
Jan 28
25 °FLight snow. Ice fog.6 mph93%30.51 "Hg2 mi
10:00 PM25 °FLight snow. Ice fog.8 mph93%30.51 "Hg1 mi
9:00 PM25 °FLight snow. Ice fog.6 mph93%30.51 "Hg1 mi
8:00 PM25 °FLight snow. Ice fog.8 mph93%30.48 "Hg1 mi
7:00 PM25 °FLight snow. Ice fog.8 mph93%30.48 "Hg1 mi
6:00 PM25 °FLight snow. Ice fog.10 mph93%30.45 "Hg1 mi
Weather by CustomWeather, © 2014

See weather overviewHow to use our weather pages